Auburn, CA

5:11 AM PST on December 13, 2019 (GMT -0800)
Auburn Municipal

Weather History for KAUN - October, 2019

Change the Weather History Date:

Sunday, October 27, 2019

  Actual Average Record
Temperature  
Mean Temperature 54 °F -  
Max Temperature 66 °F 70 °F 87 °F (1965)
Min Temperature 42 °F 48 °F 35 °F (2004)
Degree Days  
Heating Degree Days 11    
Growing Degree Days 4 (Base 50)    
Moisture  
Dew Point 15 °F    
Average Humidity 23    
Maximum Humidity 66    
Minimum Humidity 10    
Precipitation  
Precipitation 0.00 in - - ()
Sea Level Pressure  
Sea Level Pressure 29.88 in    
Wind  
Wind Speed 5 mph ()    
Max Wind Speed 20 mph    
Max Gust Speed 33 mph    
Visibility 10.0 miles    
Events      
Averages and records for this station are not official NWS values.
T = Trace of Precipitation, MM = Missing Value Source: Averaged Metar Reports

Daily Weather History Graph

Daily Weather History Graph

Search for Another Location

Airport or City:

Astronomy

Oct. 27, 2019 Rise Set
Actual Time 7:26 AM PDT 6:09 PM PDT
Civil Twilight 6:58 AM PDT 6:37 PM PDT
Nautical Twilight 6:27 AM PDT 7:08 PM PDT
Astronomical Twilight 5:56 AM PDT 7:39 PM PDT
Moon 6:41 AM PDT (10/27) 6:21 PM PDT (10/27)
Length of Visible Light 11h 38m
Length of Day
10h 43m
Waning Crescent, 0% of the Moon is Illuminated
Oct 27
Waning Crescent
Oct 27
New
Nov 4
First Quarter
Nov 12
Full
Nov 19
Last Quarter

Hourly Weather History & Observations

Time (PDT) Temp. Dew Point Humidity Pressure Visibility Wind Dir Wind Speed Gust Speed Precip Events Conditions
12:15 AM 48.2 °F 35.6 °F 62% 29.76 in 10.0 mi Calm Calm - N/A   Clear
12:35 AM 50.0 °F 37.4 °F 62% 29.75 in 10.0 mi Calm Calm - N/A   Clear
12:55 AM 50.0 °F 37.4 °F 62% 29.75 in 10.0 mi Calm Calm - N/A   Clear
1:15 AM 48.2 °F 37.4 °F 66% 29.76 in 10.0 mi Calm Calm - N/A   Clear
1:35 AM 53.6 °F 37.4 °F 54% 29.75 in 10.0 mi Calm Calm - N/A   Clear
1:55 AM 53.6 °F 37.4 °F 54% 29.75 in 10.0 mi Calm Calm - N/A   Clear
2:15 AM 53.6 °F 35.6 °F 51% 29.76 in 10.0 mi Calm Calm - N/A   Clear
2:35 AM 55.4 °F 28.4 °F 36% 29.75 in 10.0 mi Calm Calm - N/A   Clear
2:55 AM 55.4 °F 26.6 °F 33% 29.77 in 10.0 mi Calm Calm - N/A   Clear
3:15 AM 57.2 °F 21.2 °F 25% 29.77 in 10.0 mi Calm Calm - N/A   Clear
3:35 AM 57.2 °F 19.4 °F 23% 29.77 in 10.0 mi Variable 4.6 mph - N/A   Clear
3:55 AM 57.2 °F 19.4 °F 23% 29.77 in 10.0 mi Variable 4.6 mph 17.3 mph N/A   Clear
4:15 AM 57.2 °F 17.6 °F 21% 29.77 in 10.0 mi NE 10.4 mph 20.7 mph N/A   Clear
4:35 AM 57.2 °F 17.6 °F 21% 29.77 in 10.0 mi NE 11.5 mph 19.6 mph N/A   Clear
4:55 AM 57.2 °F 17.6 °F 21% 29.77 in 10.0 mi NE 10.4 mph 23.0 mph N/A   Clear
5:15 AM 57.2 °F 17.6 °F 21% 29.77 in 10.0 mi NE 12.7 mph 21.9 mph N/A   Clear
5:35 AM 55.4 °F 19.4 °F 25% 29.78 in 10.0 mi ENE 13.8 mph 25.3 mph N/A   Clear
5:55 AM 55.4 °F 19.4 °F 25% 29.78 in 10.0 mi Variable 8.1 mph 16.1 mph N/A   Clear
6:15 AM 55.4 °F 19.4 °F 25% 29.78 in 10.0 mi Variable 5.8 mph 16.1 mph N/A   Clear
6:35 AM 55.4 °F 19.4 °F 25% 29.79 in 10.0 mi ENE 12.7 mph 18.4 mph N/A   Clear
6:55 AM 55.4 °F 19.4 °F 25% 29.79 in 10.0 mi ENE 12.7 mph 23.0 mph N/A   Clear
7:15 AM 55.4 °F 17.6 °F 23% 29.79 in 10.0 mi Variable 5.8 mph 19.6 mph N/A   Clear
7:35 AM 53.6 °F 17.6 °F 24% 29.80 in 10.0 mi ENE 12.7 mph 18.4 mph N/A   Clear
7:55 AM 53.6 °F 15.8 °F 22% 29.81 in 10.0 mi ENE 12.7 mph 20.7 mph N/A   Clear
8:15 AM 55.4 °F 15.8 °F 21% 29.81 in 10.0 mi ENE 11.5 mph 21.9 mph N/A   Clear
8:35 AM 55.4 °F 15.8 °F 21% 29.82 in 10.0 mi ENE 16.1 mph 27.6 mph N/A   Clear
8:55 AM 57.2 °F 14.0 °F 18% 29.83 in 10.0 mi ENE 17.3 mph 29.9 mph N/A   Clear
9:15 AM 57.2 °F 14.0 °F 18% 29.86 in 10.0 mi NE 15.0 mph 29.9 mph N/A   Clear
9:35 AM 57.2 °F 10.4 °F 16% 29.87 in 10.0 mi ENE 16.1 mph 29.9 mph N/A   Clear
9:55 AM 57.2 °F 8.6 °F 14% 29.87 in 10.0 mi NE 17.3 mph 33.4 mph N/A   Clear
10:15 AM 59.0 °F 8.6 °F 14% 29.89 in 10.0 mi NE 11.5 mph 26.5 mph N/A   Clear
10:35 AM 60.8 °F 6.8 °F 12% 29.89 in 10.0 mi ENE 5.8 mph 20.7 mph N/A   Clear
11:15 AM 62.6 °F 6.8 °F 11% 29.90 in 10.0 mi East 13.8 mph 26.5 mph N/A   Clear
11:35 AM 62.6 °F 8.6 °F 12% 29.91 in 10.0 mi NNE 6.9 mph 21.9 mph N/A   Clear
12:15 PM 62.6 °F 10.4 °F 13% 29.91 in 10.0 mi ENE 17.3 mph 28.8 mph N/A   Clear
12:35 PM 62.6 °F 6.8 °F 11% 29.91 in 10.0 mi ENE 19.6 mph 28.8 mph N/A   Clear
12:55 PM 62.6 °F 10.4 °F 13% 29.91 in 10.0 mi NE 10.4 mph 24.2 mph N/A   Clear
1:35 PM 64.4 °F 10.4 °F 12% 29.91 in 10.0 mi NE 17.3 mph 26.5 mph N/A   Clear
1:55 PM 62.6 °F 8.6 °F 12% 29.92 in 10.0 mi NE 17.3 mph 28.8 mph N/A   Clear
2:15 PM 64.4 °F 8.6 °F 11% 29.92 in 10.0 mi NNE 13.8 mph 27.6 mph N/A   Clear
2:35 PM 64.4 °F 6.8 °F 10% 29.92 in 10.0 mi NE 18.4 mph 29.9 mph N/A   Clear
2:55 PM 64.4 °F 6.8 °F 10% 29.92 in 10.0 mi NE 16.1 mph 26.5 mph N/A   Clear
3:15 PM 64.4 °F 8.6 °F 11% 29.92 in 10.0 mi NE 11.5 mph 23.0 mph N/A   Clear
3:35 PM 66.2 °F 10.4 °F 11% 29.93 in 10.0 mi ENE 8.1 mph 19.6 mph N/A   Clear
3:55 PM 64.4 °F 12.2 °F 13% 29.93 in 10.0 mi East 18.4 mph 25.3 mph N/A   Clear
4:15 PM 64.4 °F 12.2 °F 13% 29.93 in 10.0 mi East 13.8 mph 19.6 mph N/A   Clear
4:35 PM 64.4 °F 12.2 °F 13% 29.94 in 10.0 mi Variable 6.9 mph 16.1 mph N/A   Clear
4:55 PM 64.4 °F 10.4 °F 12% 29.95 in 10.0 mi Calm Calm - N/A   Clear
5:15 PM 62.6 °F 10.4 °F 13% 29.95 in 10.0 mi Calm Calm - N/A   Clear
5:35 PM 62.6 °F 10.4 °F 13% 29.95 in 10.0 mi Calm Calm - N/A   Clear
5:55 PM 60.8 °F 10.4 °F 14% 29.96 in 10.0 mi Calm Calm - N/A   Clear
6:15 PM 53.6 °F 12.2 °F 19% 29.96 in 10.0 mi Calm Calm - N/A   Clear
6:35 PM 55.4 °F 8.6 °F 15% 29.97 in 10.0 mi Calm Calm - N/A   Clear
6:55 PM 53.6 °F 10.4 °F 18% 29.97 in 10.0 mi Calm Calm - N/A   Clear
7:15 PM 51.8 °F 12.2 °F 21% 29.98 in 10.0 mi Calm Calm - N/A   Clear
7:35 PM 53.6 °F 10.4 °F 18% 29.99 in 10.0 mi Calm Calm - N/A   Clear
7:55 PM 50.0 °F 10.4 °F 20% 29.99 in 10.0 mi Calm Calm - N/A   Clear
8:15 PM 48.2 °F 10.4 °F 22% 29.99 in 10.0 mi Calm Calm - N/A   Clear
8:35 PM 50.0 °F 10.4 °F 20% 29.98 in 10.0 mi Calm Calm - N/A   Clear
8:55 PM 50.0 °F 8.6 °F 19% 29.99 in 10.0 mi North 4.6 mph - N/A   Clear
9:15 PM 50.0 °F 8.6 °F 19% 30.00 in 10.0 mi Calm Calm - N/A   Clear
9:35 PM 50.0 °F 10.4 °F 20% 30.01 in 10.0 mi Calm Calm - N/A   Clear
9:55 PM 46.4 °F 10.4 °F 23% 30.01 in 10.0 mi Calm Calm - N/A   Clear
10:15 PM 48.2 °F 10.4 °F 22% 30.01 in 10.0 mi Calm Calm - N/A   Clear
10:35 PM 42.8 °F 12.2 °F 29% 30.02 in 10.0 mi Calm Calm - N/A   Clear
10:55 PM 46.4 °F 12.2 °F 25% 30.01 in 10.0 mi Calm Calm - N/A   Clear
11:15 PM 46.4 °F 12.2 °F 25% 30.02 in 10.0 mi Calm Calm - N/A   Clear
11:35 PM 44.6 °F 12.2 °F 27% 30.02 in 10.0 mi Calm Calm - N/A   Clear
11:55 PM 48.2 °F 12.2 °F 24% 30.02 in 10.0 mi Calm Calm - N/A   Clear